Regional Weather Roundup
Issued by NWS Goodland, KS

Home | Current Version | Previous Version | Graphics & Text | Print | Product List | Glossary On
Versions: 1 2 3 4 5 6 7 8 9 10 11 12 13 14 15 16 17 18 19 20 21 22 23 24 25 26 27 28 29 30 31 32 33 34 35 36 37 38 39 40 41 42 43 44 45 46 47 48 49 50
000
ASUS43 KGLD 240408
RWRGLD

GOODLAND FORECAST AREA HOURLY WEATHER ROUNDUP
NATIONAL WEATHER SERVICE GOODLAND KS
1000 PM MDT FRI JUN 23 2017

...OFFICIAL OBSERVATIONS...

CITY           SKY/WX    TMP DP  RH WIND       PRES   REMARKS
GOODLAND KS    PTCLDY    58  51  78 CALM      30.23R
HILL CITY KS   CLEAR     62  49  62 NE8       30.17R
IMPERIAL NEB   CLEAR     57  42  57 N5        30.22R
MCCOOK NEB     CLEAR     60  45  57 NE6       30.19R
AKRON CO       PTCLDY    59  44  57 W3        30.29R
BURLINGTON CO  CLEAR     55  51  86 SW7       30.27R
LIMON CO       CLEAR     51  42  71 CALM      30.33R
$$

...UNOFFICIAL OBSERVATIONS...

CITY           SKY/WX    TMP DP  RH WIND       PRES   REMARKS
LENORA KS        N/A     64  32  30 MISG        N/A
NORTON KS      CLEAR     57  39  51 N6        30.18R
SHARON SPRINGS   N/A     58  50  75 CALM        N/A
TRIBUNE KS     CLOUDY    66  55  68 CALM      30.27
TRENTON NEB      N/A     60  32  34 CALM        N/A
KIT CARSON CO    N/A     61  47  59 CALM        N/A
YUMA CO        FAIR      55  41  58 CALM      30.26R
$$



USA.gov is the U.S. government's official web portal to all federal, state and local government web resources and services.